This is the latest recevied weather packets stored in our database for station/object W2JBO-5. If no packets are shown the sender has not sent any weather packets the latest 10 day(s).
| Time | Temp. | Humidity | Pressure | Rain* | Wind** | Luminosity | Snow |
|---|---|---|---|---|---|---|---|
| 1777313430 | 30.56° C | 64% | - | 0 mm | - | - | - |
| 1777313126 | 30.56° C | 63% | - | 0 mm | - | - | - |
| 1777312822 | 30.56° C | 63% | - | 0 mm | - | - | - |
| 1777312519 | 31.11° C | 65% | - | 0 mm | - | - | - |
| 1777312216 | 31.11° C | 61% | 1014.2 hPa | 0 mm | - | 782 W/m² | - |
| 1777311914 | 31.11° C | 62% | 1014.2 hPa | 0 mm | - | 652 W/m² | - |
| 1777311610 | 30.56° C | 64% | 1014.2 hPa | 0 mm | - | 561 W/m² | - |
| 1777311309 | 30.56° C | 62% | 1014.2 hPa | 0 mm | - | 744 W/m² | - |
| 1777311005 | 30.56° C | 62% | 1014.2 hPa | 0 mm | - | 728 W/m² | - |
| 1777310703 | 30.56° C | 65% | 1014.2 hPa | 0 mm | - | 698 W/m² | - |
| 1777310400 | 30.56° C | 64% | 1014.2 hPa | 0 mm | - | 673 W/m² | - |
| 1777310097 | 30.56° C | 63% | 1014.2 hPa | 0 mm | - | 725 W/m² | - |
| 1777309795 | 30.56° C | 65% | 1014.2 hPa | 0 mm | - | 779 W/m² | - |
| 1777309493 | 30° C | 65% | 1014.2 hPa | 0 mm | - | 789 W/m² | - |
| 1777309189 | 30° C | 66% | 1014.2 hPa | 0 mm | - | 782 W/m² | - |
| 1777308888 | 30° C | 65% | 1014.2 hPa | 0 mm | - | 775 W/m² | - |
| 1777308582 | 30° C | 69% | 1014.4 hPa | 0 mm | - | 803 W/m² | - |
| 1777308279 | 30° C | 69% | 1014.4 hPa | 0 mm | - | 805 W/m² | - |
| 1777307974 | 29.44° C | 69% | 1014.4 hPa | 0 mm | - | 801 W/m² | - |
| 1777307672 | 29.44° C | 69% | 1014.4 hPa | 0 mm | - | 811 W/m² | - |
| 1777307369 | 29.44° C | 70% | 1014.5 hPa | 0 mm | - | 803 W/m² | - |
| 1777307066 | 29.44° C | 70% | 1014.5 hPa | 0 mm | - | 807 W/m² | - |
| 1777306763 | 29.44° C | 72% | 1014.7 hPa | 0 mm | - | 814 W/m² | - |
| 1777306461 | 29.44° C | 73% | 1014.4 hPa | 0 mm | - | 796 W/m² | - |
| 1777306155 | 29.44° C | 73% | 1014.4 hPa | 0 mm | - | 800 W/m² | - |
* Rain latest hour (hover to see other rain measurements)
** Current wind speed in m/s (hover to see current wind gust speed)